EW1647 Weather Reports


Display with metric or nautical units.
time (UTC)temp
F
wind
direction
speed
MPH
gust
MPH
rain 1hr
in
rain 24hr
in
rain mn
in
humidity
%
barometer
mb
20260503233056 78 351 3.0 12.0 0.00 0.00 0.00 42 1010.7
20260503231555 78 47 4.0 9.0 0.00 0.00 0.00 46 1010.9
20260503230051 77 5 3.0 10.0 0.00 0.00 0.00 48 1011.2
20260503224551 77 10 6.0 9.0 0.00 0.00 0.00 47 1011.3
20260503223047 78 58 3.0 9.0 0.00 0.00 0.00 43 1011.5
20260503221544 78 5 4.0 10.0 0.00 0.00 0.00 43 1011.7
20260503220041 77 33 3.0 9.0 0.00 0.00 0.00 43 1011.8
20260503214545 76 5 4.0 8.0 0.00 0.00 0.00 45 1012.0
20260503213052 75 324 3.0 8.0 0.00 0.00 0.00 47 1012.2
20260503211538 75 329 5.0 10.0 0.00 0.00 0.00 48 1012.3
20260503210028 74 299 4.0 11.0 0.00 0.00 0.00 50 1012.4
20260503204536 74 16 4.0 9.0 0.00 0.00 0.00 52 1012.6
20260503203026 73 12 3.0 10.0 0.00 0.00 0.00 51 1012.8
20260503201524 73 35 2.0 4.0 0.00 0.00 0.00 54 1012.9
20260503200015 71 38 3.0 11.0 0.00 0.00 0.00 55 1013.1
20260503194518 70 38 3.0 10.0 0.00 0.00 0.00 60 1013.4
20260503193007 68 29 3.0 10.0 0.00 0.00 0.00 60 1013.6
20260503191503 67 19 3.0 6.0 0.00 0.00 0.00 62 1013.8
20260503190101 67 38 4.0 9.0 0.00 0.00 0.00 63 1014.0
20260503184628 66 13 4.0 8.0 0.00 0.00 0.00 66 1014.0
20260503183104 65 16 3.0 6.0 0.00 0.00 0.00 69 1014.2
20260503181552 64 26 2.0 6.0 0.00 0.00 0.00 70 1014.3
20260503180050 64 56 2.0 6.0 0.00 0.00 0.00 69 1014.4
20260503174603 64 34 1.0 6.0 0.00 0.00 0.00 69 1014.5
20260503173100 64 22 4.0 9.0 0.00 0.00 0.00 69 1014.5
20260503171548 63 36 3.0 9.0 0.00 0.00 0.00 71 1014.6
20260503081559 61 94 0.0 2.0 0.00 0.00 0.00 63 1014.9
20260503071603 63 61 4.0 9.0 0.00 0.00 0.00 57 1014.7
20260503054552 63 355 4.0 9.0 0.00 0.00 0.00 57 1014.6
20260503053040 62 24 4.0 10.0 0.00 0.00 0.00 60 1014.6
20260503051546 61 52 4.0 10.0 0.00 0.00 0.00 63 1014.5
20260503050036 60 69 4.0 10.0 0.00 0.00 0.00 68 1014.4
20260503044536 60 79 4.0 9.0 0.00 0.00 0.00 71 1014.4
20260503043035 60 74 3.0 6.0 0.00 0.00 0.00 71 1014.3
20260503041535 61 71 0.0 0.0 0.00 0.00 0.00 69 1014.2
20260503040035 62 71 0.0 3.0 0.00 0.00 0.00 67 1014.1
20260503034543 63 70 2.0 5.0 0.00 0.00 0.00 66 1013.7
20260503033045 64 67 3.0 6.0 0.00 0.00 0.00 64 1013.6
20260503031537 64 50 3.0 11.0 0.00 0.00 0.00 63 1013.4
20260503030036 65 9 8.0 19.0 0.00 0.00 0.00 62 1013.4
20260503024542 65 78 4.0 14.0 0.00 0.00 0.00 62 1013.3
20260503023031 66 90 3.0 8.0 0.00 0.00 0.00 61 1013.1
20260503021533 67 179 1.0 5.0 0.00 0.00 0.00 60 1013.1
20260503020030 68 38 2.0 11.0 0.00 0.00 0.00 57 1013.2
20260503014529 69 288 3.0 13.0 0.00 0.00 0.00 56 1013.1
20260503013034 70 59 2.0 8.0 0.00 0.00 0.00 56 1013.2
20260503011527 70 13 4.0 14.0 0.00 0.00 0.00 55 1013.3
20260503010030 70 21 3.0 10.0 0.00 0.00 0.00 55 1013.4
20260503004525 70 9 4.0 10.0 0.00 0.00 0.00 58 1013.4
20260503003033 70 5 4.0 9.0 0.00 0.00 0.00 59 1013.5
20260503001522 70 350 3.0 10.0 0.00 0.00 0.00 59 1013.5
20260503000022 70 349 2.0 12.0 0.00 0.00 0.00 61 1013.5
20260502234521 70 327 3.0 9.0 0.00 0.00 0.00 61 1013.7